Terminal Aerodrome Forecast
Issued by NWS Charleston, WV

Current Version | Previous Version | Text Only | Print | Product List | Glossary Off
Versions: 1 2 3 4 5 6 7 8 9 10 11 12 13 14 15 16 17 18 19 20 21 22 23 24

000
FTUS41 KRLX 241500 AAB
TAFEKN
TAF AMD
KEKN 241541Z 2416/2512 15005KT P6SM SCT030 BKN040
      TEMPO 2416/2418 BKN030
     FM242000 13005KT P6SM SCT040
     FM250100 13004KT P6SM SKC
     FM250400 13004KT 5SM BR SKC
     FM250800 14003KT 3/4SM BR BKN002=

USA.gov is the U.S. government's official web portal to all federal, state and local government web resources and services.